Santa Rosa, CA

1:04 PM PST on December 16, 2017 (GMT -0800)
Sonoma County

Weather History for KSTS - June, 2013

Change the Weather History Date:

Wednesday, June 12, 2013

  Actual Average Record
Temperature  
Mean Temperature 64 °F 65 °F  
Max Temperature 86 °F 81 °F 96 °F (2008)
Min Temperature 42 °F 50 °F 42 °F (2013)
Degree Days  
Heating Degree Days 1    
Month to date heating degree days 24  
Since 1 June heating degree days 24  
Since 1 July heating degree days 2692  
Cooling Degree Days 0    
Month to date cooling degree days 28  
Year to date cooling degree days 83  
Since 1 June cooling degree days 28  
Growing Degree Days 13 (Base 50)    
Moisture  
Dew Point 42 °F    
Average Humidity 58    
Maximum Humidity 100    
Minimum Humidity 16    
Precipitation  
Precipitation 0.00 in 0.00 in 0.03 in (1992)
Month to date precipitation 0.09 0.12  
Year to date precipitation 5.11 21.97  
Since 1 July precipitation 27.52  
Sea Level Pressure  
Sea Level Pressure 29.92 in    
Wind  
Wind Speed 7 mph (NW)    
Max Wind Speed 22 mph    
Max Gust Speed 26 mph    
Visibility 7 miles    
Events Fog    
T = Trace of Precipitation, MM = Missing Value Source: NWS Daily Summary

Daily Weather History Graph

Daily Weather History Graph

Search for Another Location

Airport or City:

Trip Planner

Search our weather history database for the weather conditions in past years. The results will help you decide how hot, cold, wet, or windy it might be!

Date:

Astronomy

Jun. 12, 2013 Rise Set
Actual Time 5:46 AM PDT 8:36 PM PDT
Civil Twilight 5:14 AM PDT 9:07 PM PDT
Nautical Twilight 4:35 AM PDT 9:47 PM PDT
Astronomical Twilight 3:49 AM PDT 10:33 PM PDT
Moon 9:28 AM PDT (6/12) 11:17 PM PDT (6/12)
Length of Visible Light 15h 52m
Length of Day
14h 49m
Waxing Crescent, 15% of the Moon is Illuminated
Jun 12
Waxing Crescent
Jun 16
First Quarter
Jun 23
Full
Jun 29
Last Quarter
Jul 8
New

Hourly Weather History & Observations

Time (PDT) Temp. Dew Point Humidity Pressure Visibility Wind Dir Wind Speed Gust Speed Precip Events Conditions
12:53 AM 51.1 °F 46.9 °F 86% 29.88 in 8.0 mi South 3.5 mph - N/A   Clear
1:53 AM 50.0 °F 46.9 °F 89% 29.88 in 7.0 mi Calm Calm - N/A   Clear
2:53 AM 48.0 °F 45.0 °F 89% 29.88 in 7.0 mi Calm Calm - N/A   Clear
3:53 AM 46.9 °F 45.0 °F 93% 29.89 in 6.0 mi Calm Calm - N/A   Clear
4:53 AM 46.0 °F 44.1 °F 93% 29.90 in 7.0 mi Calm Calm - N/A   Clear
5:11 AM 44.6 °F 42.8 °F 93% 29.92 in 5.0 mi Calm Calm - N/A   Partly Cloudy
5:38 AM 44.6 °F 42.8 °F 93% 29.92 in 1.8 mi Calm Calm - N/A   Partly Cloudy
5:42 AM 44.6 °F 42.8 °F 93% 29.92 in 0.8 mi Calm Calm - N/A   Mist
5:53 AM 43.0 °F 42.1 °F 97% 29.91 in 1.2 mi Calm Calm - N/A   Scattered Clouds
5:56 AM 42.8 °F 42.8 °F 100% 29.93 in 3.0 mi Calm Calm - N/A   Scattered Clouds
6:03 AM 42.8 °F 41.0 °F 93% 29.93 in 4.0 mi Calm Calm - N/A   Mostly Cloudy
6:11 AM 42.8 °F 41.0 °F 93% 29.93 in 5.0 mi Calm Calm - N/A   Scattered Clouds
6:16 AM 42.8 °F 42.8 °F 100% 29.93 in 1.2 mi Calm Calm - N/A   Mostly Cloudy
6:21 AM 44.6 °F 42.8 °F 93% 29.93 in 0.2 mi Calm Calm - N/A Fog Fog
6:30 AM 44.6 °F 42.8 °F 93% 29.94 in 1.0 mi Calm Calm - N/A   Mist
6:32 AM 44.6 °F 42.8 °F 93% 29.94 in 3.0 mi Calm Calm - N/A   Scattered Clouds
6:53 AM 46.9 °F 46.0 °F 97% 29.93 in 10.0 mi Calm Calm - N/A Fog Patches of Fog
7:53 AM 55.0 °F 48.9 °F 80% 29.94 in 10.0 mi Calm Calm - N/A   Clear
8:53 AM 61.0 °F 46.9 °F 60% 29.94 in 10.0 mi Calm Calm - N/A   Clear
9:53 AM 69.1 °F 42.1 °F 38% 29.94 in 10.0 mi North 6.9 mph - N/A   Clear
10:53 AM 71.1 °F 43.0 °F 36% 29.94 in 10.0 mi Variable 3.5 mph - N/A   Clear
11:53 AM 78.1 °F 42.1 °F 28% 29.93 in 10.0 mi Variable 3.5 mph - N/A   Clear
12:53 PM 81.0 °F 41.0 °F 24% 29.91 in 10.0 mi Variable 5.8 mph - N/A   Clear
1:53 PM 82.0 °F 46.0 °F 28% 29.90 in 10.0 mi South 8.1 mph - N/A   Clear
2:53 PM 84.9 °F 37.9 °F 19% 29.89 in 10.0 mi Variable 6.9 mph - N/A   Clear
3:16 PM 84.2 °F 33.8 °F 16% 29.90 in 10.0 mi NNW 9.2 mph 21.9 mph N/A   Clear
3:53 PM 84.0 °F 34.0 °F 17% 29.88 in 10.0 mi NNW 15.0 mph 20.7 mph N/A   Clear
4:53 PM 82.0 °F 36.0 °F 19% 29.89 in 10.0 mi NW 17.3 mph 21.9 mph N/A   Clear
5:53 PM 80.1 °F 34.0 °F 19% 29.89 in 10.0 mi NNW 19.6 mph 24.2 mph N/A   Clear
6:53 PM 75.9 °F 33.1 °F 21% 29.90 in 10.0 mi NW 16.1 mph 24.2 mph N/A   Clear
7:53 PM 71.1 °F 35.1 °F 27% 29.91 in 10.0 mi NW 12.7 mph 20.7 mph N/A   Clear
8:53 PM 66.9 °F 37.9 °F 34% 29.94 in 10.0 mi NW 8.1 mph - N/A   Clear
9:53 PM 64.0 °F 41.0 °F 43% 29.95 in 10.0 mi NW 12.7 mph - N/A   Clear
10:53 PM 61.0 °F 42.1 °F 50% 29.96 in 10.0 mi NW 8.1 mph - N/A   Clear
11:53 PM 60.1 °F 41.0 °F 49% 29.96 in 10.0 mi NW 10.4 mph - N/A   Clear